Year,Month,Day,Hour,Minute,Value (Times are PST for temperature in C)
2012,07,14,00,00,15.20
2012,07,14,00,01,15.20
2012,07,14,00,02,15.20
2012,07,14,00,03,15.20
2012,07,14,00,04,15.20
2012,07,14,00,05,15.20
2012,07,14,00,06,15.20
2012,07,14,00,07,15.20
2012,07,14,00,08,15.20
2012,07,14,00,09,15.10
2012,07,14,00,10,15.10
2012,07,14,00,11,15.10
2012,07,14,00,12,15.10
2012,07,14,00,13,15.10
2012,07,14,00,18,15.00
2012,07,14,00,19,15.00
2012,07,14,00,20,15.00
2012,07,14,00,21,15.00
2012,07,14,00,22,15.00
2012,07,14,00,23,15.00
2012,07,14,00,24,15.00
2012,07,14,00,25,15.00
2012,07,14,00,26,15.00
2012,07,14,00,27,15.00
2012,07,14,00,28,15.00
2012,07,14,00,29,15.00
2012,07,14,00,30,15.00
2012,07,14,00,31,15.00
2012,07,14,00,32,15.00
2012,07,14,00,33,15.00
2012,07,14,00,34,15.00
2012,07,14,00,35,15.00
2012,07,14,00,36,15.00
2012,07,14,00,37,15.00
2012,07,14,00,38,15.00
2012,07,14,00,39,15.00
2012,07,14,00,40,15.00
2012,07,14,00,41,15.00
2012,07,14,00,42,15.00
2012,07,14,00,43,15.00
2012,07,14,00,44,15.00
2012,07,14,00,45,14.90
2012,07,14,00,46,14.90
2012,07,14,00,47,14.80
2012,07,14,00,48,14.80
2012,07,14,00,49,14.80
2012,07,14,00,50,14.80
2012,07,14,00,51,14.80
2012,07,14,00,52,14.70
2012,07,14,00,53,14.70
2012,07,14,00,54,14.70
2012,07,14,00,55,14.70
2012,07,14,00,56,14.70
2012,07,14,00,57,14.70
2012,07,14,00,58,14.70
2012,07,14,00,59,14.70
2012,07,14,01,00,14.70
2012,07,14,01,01,14.70
2012,07,14,01,02,14.70
2012,07,14,01,03,14.70
2012,07,14,01,04,14.70
2012,07,14,01,05,14.70
2012,07,14,01,06,14.70
2012,07,14,01,07,14.60
2012,07,14,01,08,14.60
2012,07,14,01,09,14.60
2012,07,14,01,10,14.60
2012,07,14,01,11,14.60
2012,07,14,01,12,14.60
2012,07,14,01,13,14.60
2012,07,14,01,14,14.60
2012,07,14,01,15,14.60
2012,07,14,01,16,14.60
2012,07,14,01,17,14.60
2012,07,14,01,18,14.60
2012,07,14,01,19,14.60
2012,07,14,01,20,14.60
2012,07,14,01,21,14.50
2012,07,14,01,22,14.50
2012,07,14,01,23,14.50
2012,07,14,01,24,14.50
2012,07,14,01,25,14.40
2012,07,14,01,26,14.40
2012,07,14,01,27,14.40
2012,07,14,01,28,14.40
2012,07,14,01,29,14.40
2012,07,14,01,30,14.40
2012,07,14,01,31,14.40
2012,07,14,01,32,14.40
2012,07,14,01,33,14.40
2012,07,14,01,34,14.40
2012,07,14,01,35,14.40
2012,07,14,01,36,14.40
2012,07,14,01,37,14.40
2012,07,14,01,38,14.40
2012,07,14,01,39,14.40
2012,07,14,01,40,14.40
2012,07,14,01,41,14.40
2012,07,14,01,42,14.40
2012,07,14,01,43,14.30
2012,07,14,01,44,14.30
2012,07,14,01,45,14.30
2012,07,14,01,46,14.30
2012,07,14,01,47,14.30
2012,07,14,01,48,14.30
2012,07,14,01,49,14.30
2012,07,14,01,50,14.30
2012,07,14,01,51,14.30
2012,07,14,01,52,14.30
2012,07,14,01,53,14.30
2012,07,14,01,54,14.30
2012,07,14,01,55,14.30
2012,07,14,01,56,14.30
2012,07,14,01,57,14.30
2012,07,14,01,58,14.30
2012,07,14,01,59,14.30
2012,07,14,02,00,14.30
2012,07,14,02,01,14.30
2012,07,14,02,02,14.30
2012,07,14,02,03,14.20
2012,07,14,02,04,14.20
2012,07,14,02,05,14.20
2012,07,14,02,06,14.20
2012,07,14,02,07,14.20
2012,07,14,02,08,14.20
2012,07,14,02,09,14.20
2012,07,14,02,10,14.20
2012,07,14,02,11,14.20
2012,07,14,02,12,14.20
2012,07,14,02,13,14.20
2012,07,14,02,14,14.20
2012,07,14,02,15,14.20
2012,07,14,02,16,14.20
2012,07,14,02,17,14.20
2012,07,14,02,18,14.20
2012,07,14,02,19,14.20
2012,07,14,02,20,14.20
2012,07,14,02,21,14.20
2012,07,14,02,22,14.20
2012,07,14,02,23,14.20
2012,07,14,02,24,14.20
2012,07,14,02,25,14.20
2012,07,14,02,26,14.20
2012,07,14,02,27,14.20
2012,07,14,02,28,14.20
2012,07,14,02,29,14.20
2012,07,14,02,30,14.20
2012,07,14,02,31,14.20
2012,07,14,02,32,14.20
2012,07,14,02,33,14.20
2012,07,14,02,34,14.20
2012,07,14,02,35,14.20
2012,07,14,02,36,14.10
2012,07,14,02,37,14.10
2012,07,14,02,38,14.10
2012,07,14,02,39,14.10
2012,07,14,02,40,14.10
2012,07,14,02,41,14.10
2012,07,14,02,42,14.10
2012,07,14,02,43,14.10
2012,07,14,02,44,14.10
2012,07,14,02,45,14.10
2012,07,14,02,46,14.10
2012,07,14,02,47,14.10
2012,07,14,02,48,14.10
2012,07,14,02,49,14.10
2012,07,14,02,50,14.10
2012,07,14,02,51,14.10
2012,07,14,02,52,14.10
2012,07,14,02,53,14.10
2012,07,14,02,54,14.10
2012,07,14,02,55,14.10
2012,07,14,02,56,14.10
2012,07,14,02,57,14.00
2012,07,14,02,58,14.00
2012,07,14,02,59,14.00
2012,07,14,03,00,14.00
2012,07,14,03,01,14.00
2012,07,14,03,02,14.00
2012,07,14,03,03,13.90
2012,07,14,03,04,13.90
2012,07,14,03,05,13.90
2012,07,14,03,06,13.90
2012,07,14,03,07,13.90
2012,07,14,03,08,13.90
2012,07,14,03,09,13.90
2012,07,14,03,10,13.80
2012,07,14,03,11,13.80
2012,07,14,03,12,13.80
2012,07,14,03,13,13.80
2012,07,14,03,14,13.80
2012,07,14,03,15,13.80
2012,07,14,03,16,13.80
2012,07,14,03,17,13.80
2012,07,14,03,18,13.80
2012,07,14,03,19,13.70
2012,07,14,03,20,13.70
2012,07,14,03,21,13.70
2012,07,14,03,22,13.70
2012,07,14,03,23,13.70
2012,07,14,03,24,13.70
2012,07,14,03,25,13.70
2012,07,14,03,26,13.70
2012,07,14,03,27,13.70
2012,07,14,03,28,13.70
2012,07,14,03,29,13.70
2012,07,14,03,30,13.60
2012,07,14,03,31,13.60
2012,07,14,03,32,13.60
2012,07,14,03,33,13.60
2012,07,14,03,34,13.60
2012,07,14,03,35,13.60
2012,07,14,03,36,13.60
2012,07,14,03,37,13.60
2012,07,14,03,38,13.60
2012,07,14,03,39,13.60
2012,07,14,03,40,13.60
2012,07,14,03,41,13.60
2012,07,14,03,42,13.60
2012,07,14,03,43,13.60
2012,07,14,03,44,13.60
2012,07,14,03,45,13.60
2012,07,14,03,46,13.60
2012,07,14,03,47,13.60
2012,07,14,03,48,13.60
2012,07,14,03,49,13.60
2012,07,14,03,50,13.60
2012,07,14,03,51,13.60
2012,07,14,03,52,13.50
2012,07,14,03,53,13.50
2012,07,14,03,54,13.50
2012,07,14,03,55,13.50
2012,07,14,03,56,13.50
2012,07,14,03,57,13.50
2012,07,14,03,58,13.50
2012,07,14,03,59,13.50
2012,07,14,04,00,13.50
2012,07,14,04,01,13.50
2012,07,14,04,02,13.50
2012,07,14,04,03,13.50
2012,07,14,04,04,13.50
2012,07,14,04,05,13.50
2012,07,14,04,06,13.50
2012,07,14,04,07,13.50
2012,07,14,04,08,13.50
2012,07,14,04,09,13.40
2012,07,14,04,10,13.40
2012,07,14,04,11,13.40
2012,07,14,04,12,13.40
2012,07,14,04,13,13.40
2012,07,14,04,14,13.40
2012,07,14,04,15,13.40
2012,07,14,04,16,13.40
2012,07,14,04,17,13.40
2012,07,14,04,18,13.40
2012,07,14,04,19,13.40
2012,07,14,04,20,13.40
2012,07,14,04,21,13.40
2012,07,14,04,22,13.40
2012,07,14,04,23,13.40
2012,07,14,04,24,13.40
2012,07,14,04,25,13.40
2012,07,14,04,26,13.40
2012,07,14,04,27,13.40
2012,07,14,04,28,13.40
2012,07,14,04,29,13.40
2012,07,14,04,30,13.30
2012,07,14,04,31,13.30
2012,07,14,04,32,13.30
2012,07,14,04,33,13.30
2012,07,14,04,34,13.30
2012,07,14,04,35,13.30
2012,07,14,04,36,13.30
2012,07,14,04,37,13.40
2012,07,14,04,38,13.40
2012,07,14,04,39,13.40
2012,07,14,04,40,13.40
2012,07,14,04,41,13.40
2012,07,14,04,42,13.30
2012,07,14,04,43,13.40
2012,07,14,04,44,13.30
2012,07,14,04,45,13.30
2012,07,14,04,46,13.30
2012,07,14,04,47,13.30
2012,07,14,04,48,13.30
2012,07,14,04,49,13.30
2012,07,14,04,50,13.30
2012,07,14,04,51,13.30
2012,07,14,04,52,13.30
2012,07,14,04,53,13.30
2012,07,14,04,54,13.30
2012,07,14,04,55,13.30
2012,07,14,04,56,13.30
2012,07,14,04,57,13.30
2012,07,14,04,58,13.30
2012,07,14,04,59,13.30
2012,07,14,05,00,13.30
2012,07,14,05,01,13.30
2012,07,14,05,02,13.30
2012,07,14,05,03,13.30
2012,07,14,05,04,13.30
2012,07,14,05,05,13.30
2012,07,14,05,06,13.20
2012,07,14,05,07,13.20
2012,07,14,05,08,13.30
2012,07,14,05,09,13.30
2012,07,14,05,10,13.30
2012,07,14,05,11,13.20
2012,07,14,05,12,13.20
2012,07,14,05,13,13.20
2012,07,14,05,14,13.20
2012,07,14,05,15,13.30
2012,07,14,05,16,13.20
2012,07,14,05,17,13.20
2012,07,14,05,18,13.20
2012,07,14,05,19,13.20
2012,07,14,05,20,13.20
2012,07,14,05,21,13.20
2012,07,14,05,22,13.20
2012,07,14,05,23,13.20
2012,07,14,05,24,13.20
2012,07,14,05,25,13.20
2012,07,14,05,26,13.20
2012,07,14,05,27,13.20
2012,07,14,05,28,13.20
2012,07,14,05,29,13.20
2012,07,14,05,30,13.20
2012,07,14,05,31,13.10
2012,07,14,05,32,13.10
2012,07,14,05,33,13.10
2012,07,14,05,34,13.10
2012,07,14,05,35,13.20
2012,07,14,05,36,13.20
2012,07,14,05,37,13.20
2012,07,14,05,38,13.20
2012,07,14,05,39,13.20
2012,07,14,05,40,13.20
2012,07,14,05,41,13.20
2012,07,14,05,42,13.20
2012,07,14,05,43,13.20
2012,07,14,05,44,13.20
2012,07,14,05,45,13.20
2012,07,14,05,46,13.20
2012,07,14,05,47,13.30
2012,07,14,05,48,13.30
2012,07,14,05,49,13.30
2012,07,14,05,50,13.30
2012,07,14,05,51,13.30
2012,07,14,05,52,13.30
2012,07,14,05,53,13.30
2012,07,14,05,54,13.30
2012,07,14,05,55,13.30
2012,07,14,05,56,13.30
2012,07,14,05,57,13.30
2012,07,14,05,58,13.30
2012,07,14,05,59,13.30
2012,07,14,06,00,13.30
2012,07,14,06,01,13.30
2012,07,14,06,02,13.30
2012,07,14,06,03,13.30
2012,07,14,06,04,13.30
2012,07,14,06,05,13.30
2012,07,14,06,06,13.30
2012,07,14,06,07,13.30
2012,07,14,06,08,13.30
2012,07,14,06,09,13.30
2012,07,14,06,10,13.30
2012,07,14,06,11,13.30
2012,07,14,06,12,13.30
2012,07,14,06,13,13.30
2012,07,14,06,14,13.30
2012,07,14,06,15,13.30
2012,07,14,06,16,13.30
2012,07,14,06,17,13.30
2012,07,14,06,18,13.40
2012,07,14,06,19,13.40
2012,07,14,06,20,13.40
2012,07,14,06,21,13.40
2012,07,14,06,22,13.40
2012,07,14,06,23,13.40
2012,07,14,06,24,13.50
2012,07,14,06,25,13.50
2012,07,14,06,26,13.50
2012,07,14,06,27,13.50
2012,07,14,06,28,13.50
2012,07,14,06,29,13.50
2012,07,14,06,30,13.60
2012,07,14,06,31,13.60
2012,07,14,06,32,13.60
2012,07,14,06,33,13.60
2012,07,14,06,34,13.60
2012,07,14,06,35,13.60
2012,07,14,06,36,13.70
2012,07,14,06,37,13.70
2012,07,14,06,38,13.70
2012,07,14,06,39,13.70
2012,07,14,06,40,13.70
2012,07,14,06,41,13.70
2012,07,14,06,42,13.70
2012,07,14,06,43,13.70
2012,07,14,06,44,13.70
2012,07,14,06,45,13.80
2012,07,14,06,46,13.80
2012,07,14,06,47,13.80
2012,07,14,06,48,13.80
2012,07,14,06,49,13.80
2012,07,14,06,50,13.90
2012,07,14,06,51,14.00
2012,07,14,06,52,14.00
2012,07,14,06,53,14.10
2012,07,14,06,54,14.10
2012,07,14,06,55,14.20
2012,07,14,06,56,14.30
2012,07,14,06,57,14.30
2012,07,14,06,58,14.30
2012,07,14,06,59,14.40
2012,07,14,07,00,14.40
2012,07,14,07,01,14.40
2012,07,14,07,02,14.40
2012,07,14,07,03,14.40
2012,07,14,07,04,14.50
2012,07,14,07,05,14.50
2012,07,14,07,06,14.50
2012,07,14,07,07,14.60
2012,07,14,07,08,14.60
2012,07,14,07,09,14.60
2012,07,14,07,10,14.70
2012,07,14,07,11,14.80
2012,07,14,07,12,14.90
2012,07,14,07,13,15.00
2012,07,14,07,14,15.00
2012,07,14,07,15,15.00
2012,07,14,07,16,15.10
2012,07,14,07,17,15.20
2012,07,14,07,18,15.30
2012,07,14,07,19,15.40
2012,07,14,07,20,15.40
2012,07,14,07,21,15.50
2012,07,14,07,22,15.50
2012,07,14,07,23,15.60
2012,07,14,07,24,15.60
2012,07,14,07,25,15.60
2012,07,14,07,26,15.60
2012,07,14,07,27,15.70
2012,07,14,07,28,15.70
2012,07,14,07,29,15.80
2012,07,14,07,30,15.90
2012,07,14,07,31,15.90
2012,07,14,07,32,16.00
2012,07,14,07,33,16.10
2012,07,14,07,34,16.20
2012,07,14,07,35,16.30
2012,07,14,07,36,16.40
2012,07,14,07,37,16.50
2012,07,14,07,38,16.60
2012,07,14,07,39,16.70
2012,07,14,07,40,16.80
2012,07,14,07,41,16.90
2012,07,14,07,42,17.00
2012,07,14,07,43,17.10
2012,07,14,07,44,17.20
2012,07,14,07,45,17.20
2012,07,14,07,46,17.30
2012,07,14,07,47,17.40
2012,07,14,07,48,17.50
2012,07,14,07,49,17.60
2012,07,14,07,50,17.70
2012,07,14,07,51,17.70
2012,07,14,07,52,17.70
2012,07,14,07,53,17.70
2012,07,14,07,54,17.70
2012,07,14,07,55,17.80
2012,07,14,07,56,17.80
2012,07,14,07,57,17.80
2012,07,14,07,58,17.90
2012,07,14,07,59,17.90
2012,07,14,08,00,17.90
2012,07,14,08,01,17.90
2012,07,14,08,02,17.90
2012,07,14,08,03,18.00
2012,07,14,08,04,18.00
2012,07,14,08,05,18.00
2012,07,14,08,06,18.10
2012,07,14,08,07,18.10
2012,07,14,08,08,18.20
2012,07,14,08,09,18.20
2012,07,14,08,10,18.20
2012,07,14,08,11,18.20
2012,07,14,08,12,18.30
2012,07,14,08,13,18.30
2012,07,14,08,14,18.40
2012,07,14,08,15,18.40
2012,07,14,08,16,18.50
2012,07,14,08,17,18.50
2012,07,14,08,18,18.60
2012,07,14,08,19,18.70
2012,07,14,08,20,18.70
2012,07,14,08,21,18.80
2012,07,14,08,22,18.80
2012,07,14,08,23,18.80
2012,07,14,08,24,18.80
2012,07,14,08,25,18.80
2012,07,14,08,26,18.90
2012,07,14,08,27,18.90
2012,07,14,08,28,18.90
2012,07,14,08,29,19.00
2012,07,14,08,30,19.00
2012,07,14,08,31,19.10
2012,07,14,08,32,19.20
2012,07,14,08,33,19.20
2012,07,14,08,34,19.30
2012,07,14,08,35,19.40
2012,07,14,08,36,19.50
2012,07,14,08,37,19.60
2012,07,14,08,38,19.60
2012,07,14,08,39,19.70
2012,07,14,08,40,19.60
2012,07,14,08,41,19.60
2012,07,14,08,42,19.60
2012,07,14,08,43,19.60
2012,07,14,08,44,19.60
2012,07,14,08,45,19.60
2012,07,14,08,46,19.60
2012,07,14,08,47,19.60
2012,07,14,08,48,19.60
2012,07,14,08,49,19.70
2012,07,14,08,50,19.70
2012,07,14,08,51,19.80
2012,07,14,08,52,19.80
2012,07,14,08,53,19.90
2012,07,14,08,54,20.00
2012,07,14,08,55,20.00
2012,07,14,08,56,20.10
2012,07,14,08,57,20.10
2012,07,14,08,58,20.20
2012,07,14,08,59,20.20
2012,07,14,09,00,20.20
2012,07,14,09,01,20.20
2012,07,14,09,02,20.10
2012,07,14,09,03,20.00
2012,07,14,09,04,20.00
2012,07,14,09,05,19.90
2012,07,14,09,06,19.90
2012,07,14,09,07,19.90
2012,07,14,09,08,20.00
2012,07,14,09,09,20.00
2012,07,14,09,10,20.00
2012,07,14,09,11,20.10
2012,07,14,09,12,20.10
2012,07,14,09,13,20.10
2012,07,14,09,14,20.10
2012,07,14,09,15,20.20
2012,07,14,09,16,20.20
2012,07,14,09,17,20.10
2012,07,14,09,18,20.20
2012,07,14,09,19,20.20
2012,07,14,09,20,20.30
2012,07,14,09,21,20.30
2012,07,14,09,22,20.30
2012,07,14,09,23,20.40
2012,07,14,09,24,20.40
2012,07,14,09,25,20.40
2012,07,14,09,26,20.40
2012,07,14,09,27,20.30
2012,07,14,09,28,20.20
2012,07,14,09,29,20.10
2012,07,14,09,30,20.00
2012,07,14,09,31,20.00
2012,07,14,09,32,20.00
2012,07,14,09,33,20.00
2012,07,14,09,34,20.00
2012,07,14,09,35,20.00
2012,07,14,09,36,19.90
2012,07,14,09,37,19.80
2012,07,14,09,38,19.80
2012,07,14,09,39,19.80
2012,07,14,09,40,19.80
2012,07,14,09,41,19.60
2012,07,14,09,42,19.50
2012,07,14,09,43,19.30
2012,07,14,09,44,19.10
2012,07,14,09,45,19.10
2012,07,14,09,46,19.00
2012,07,14,09,47,18.90
2012,07,14,09,48,18.90
2012,07,14,09,49,18.80
2012,07,14,09,50,18.80
2012,07,14,09,51,18.70
2012,07,14,09,52,18.60
2012,07,14,09,53,18.50
2012,07,14,09,54,18.40
2012,07,14,09,55,18.30
2012,07,14,09,56,18.20
2012,07,14,09,57,18.20
2012,07,14,09,58,18.10
2012,07,14,09,59,18.00
2012,07,14,10,00,18.00
2012,07,14,10,01,17.90
2012,07,14,10,02,17.90
2012,07,14,10,03,17.90
2012,07,14,10,04,18.00
2012,07,14,10,05,18.00
2012,07,14,10,06,18.10
2012,07,14,10,07,18.20
2012,07,14,10,08,18.30
2012,07,14,10,09,18.50
2012,07,14,10,10,18.70
2012,07,14,10,11,18.80
2012,07,14,10,12,18.90
2012,07,14,10,13,19.10
2012,07,14,10,14,19.10
2012,07,14,10,15,19.20
2012,07,14,10,16,19.30
2012,07,14,10,17,19.30
2012,07,14,10,18,19.40
2012,07,14,10,19,19.40
2012,07,14,10,20,19.40
2012,07,14,10,21,19.50
2012,07,14,10,22,19.60
2012,07,14,10,23,19.70
2012,07,14,10,24,19.80
2012,07,14,10,25,19.90
2012,07,14,10,26,20.00
2012,07,14,10,27,20.10
2012,07,14,10,28,20.20
2012,07,14,10,29,20.40
2012,07,14,10,30,20.50
2012,07,14,10,31,20.60
2012,07,14,10,32,20.70
2012,07,14,10,33,20.80
2012,07,14,10,34,20.90
2012,07,14,10,35,20.90
2012,07,14,10,36,20.80
2012,07,14,10,37,20.60
2012,07,14,10,38,20.50
2012,07,14,10,39,20.40
2012,07,14,10,40,20.40
2012,07,14,10,41,20.50
2012,07,14,10,42,20.50
2012,07,14,10,43,20.40
2012,07,14,10,44,20.30
2012,07,14,10,45,20.30
2012,07,14,10,46,20.30
2012,07,14,10,47,20.30
2012,07,14,10,48,20.30
2012,07,14,10,49,20.30
2012,07,14,10,50,20.30
2012,07,14,10,51,20.20
2012,07,14,10,52,20.20
2012,07,14,10,53,20.10
2012,07,14,10,54,20.00
2012,07,14,10,55,19.90
2012,07,14,10,56,19.90
2012,07,14,10,57,19.80
2012,07,14,10,58,19.80
2012,07,14,10,59,19.90
2012,07,14,11,00,19.90
2012,07,14,11,01,19.90
2012,07,14,11,02,19.90
2012,07,14,11,03,20.00
2012,07,14,11,04,20.00
2012,07,14,11,05,20.00
2012,07,14,11,06,20.00
2012,07,14,11,07,20.00
2012,07,14,11,08,20.10
2012,07,14,11,09,20.10
2012,07,14,11,10,20.10
2012,07,14,11,11,20.10
2012,07,14,11,12,20.10
2012,07,14,11,13,20.20
2012,07,14,11,14,20.20
2012,07,14,11,15,20.30
2012,07,14,11,16,20.30
2012,07,14,11,17,20.40
2012,07,14,11,18,20.40
2012,07,14,11,19,20.50
2012,07,14,11,20,20.50
2012,07,14,11,21,20.60
2012,07,14,11,22,20.60
2012,07,14,11,23,20.60
2012,07,14,11,24,20.60
2012,07,14,11,25,20.60
2012,07,14,11,26,20.70
2012,07,14,11,27,20.70
2012,07,14,11,28,20.70
2012,07,14,11,29,20.70
2012,07,14,11,30,20.70
2012,07,14,11,31,20.70
2012,07,14,11,32,20.70
2012,07,14,11,33,20.70
2012,07,14,11,34,20.70
2012,07,14,11,35,20.70
2012,07,14,11,36,20.70
2012,07,14,11,37,20.80
2012,07,14,11,38,20.80
2012,07,14,11,39,20.80
2012,07,14,11,40,20.90
2012,07,14,11,41,21.00
2012,07,14,11,42,21.00
2012,07,14,11,43,21.00
2012,07,14,11,44,21.00
2012,07,14,11,45,21.10
2012,07,14,11,46,21.00
2012,07,14,11,47,21.00
2012,07,14,11,48,21.10
2012,07,14,11,49,21.00
2012,07,14,11,50,21.00
2012,07,14,11,51,20.90
2012,07,14,11,52,20.90
2012,07,14,11,53,20.90
2012,07,14,11,54,21.00
2012,07,14,11,55,21.00
2012,07,14,11,56,20.90
2012,07,14,11,57,20.90
2012,07,14,11,58,20.80
2012,07,14,11,59,20.80
2012,07,14,12,00,20.70
2012,07,14,12,01,20.70
2012,07,14,12,02,20.70
2012,07,14,12,03,20.80
2012,07,14,12,04,20.80
2012,07,14,12,05,20.90
2012,07,14,12,06,20.90
2012,07,14,12,07,20.90
2012,07,14,12,08,21.00
2012,07,14,12,09,21.00
2012,07,14,12,10,21.00
2012,07,14,12,11,21.00
2012,07,14,12,12,21.00
2012,07,14,12,13,21.10
2012,07,14,12,14,21.10
2012,07,14,12,15,21.10
2012,07,14,12,16,21.10
2012,07,14,12,17,21.00
2012,07,14,12,18,20.90
2012,07,14,12,19,20.90
2012,07,14,12,20,20.90
2012,07,14,12,21,20.90
2012,07,14,12,22,20.90
2012,07,14,12,23,20.90
2012,07,14,12,24,21.00
2012,07,14,12,25,21.00
2012,07,14,12,26,21.10
2012,07,14,12,27,21.10
2012,07,14,12,28,21.10
2012,07,14,12,29,21.10
2012,07,14,12,30,21.10
2012,07,14,12,31,21.10
2012,07,14,12,32,21.10
2012,07,14,12,33,21.00
2012,07,14,12,34,20.90
2012,07,14,12,35,20.80
2012,07,14,12,36,20.60
2012,07,14,12,37,20.60
2012,07,14,12,38,20.50
2012,07,14,12,39,20.50
2012,07,14,12,40,20.40
2012,07,14,12,41,20.30
2012,07,14,12,42,20.30
2012,07,14,12,43,20.30
2012,07,14,12,44,20.30
2012,07,14,12,45,20.40
2012,07,14,12,46,20.30
2012,07,14,12,47,20.30
2012,07,14,12,48,20.40
2012,07,14,12,49,20.40
2012,07,14,12,50,20.50
2012,07,14,12,51,20.50
2012,07,14,12,52,20.50
2012,07,14,12,53,20.50
2012,07,14,12,54,20.60
2012,07,14,12,55,20.70
2012,07,14,12,56,20.80
2012,07,14,12,57,20.80
2012,07,14,12,58,21.00
2012,07,14,12,59,21.10
2012,07,14,13,00,21.20
2012,07,14,13,01,21.20
2012,07,14,13,02,21.30
2012,07,14,13,03,21.30
2012,07,14,13,04,21.40
2012,07,14,13,05,21.40
2012,07,14,13,06,21.40
2012,07,14,13,07,21.50
2012,07,14,13,08,21.60
2012,07,14,13,09,21.70
2012,07,14,13,10,21.70
2012,07,14,13,11,21.80
2012,07,14,13,12,21.90
2012,07,14,13,13,22.00
2012,07,14,13,14,22.20
2012,07,14,13,15,22.30
2012,07,14,13,16,22.30
2012,07,14,13,17,22.20
2012,07,14,13,18,22.20
2012,07,14,13,19,22.20
2012,07,14,13,20,22.20
2012,07,14,13,21,22.30
2012,07,14,13,22,22.30
2012,07,14,13,23,22.40
2012,07,14,13,24,22.40
2012,07,14,13,25,22.40
2012,07,14,13,26,22.40
2012,07,14,13,27,22.30
2012,07,14,13,28,22.30
2012,07,14,13,29,22.30
2012,07,14,13,30,22.30
2012,07,14,13,31,22.40
2012,07,14,13,32,22.50
2012,07,14,13,33,22.60
2012,07,14,13,34,22.70
2012,07,14,13,35,22.80
2012,07,14,13,36,22.80
2012,07,14,13,37,22.90
2012,07,14,13,38,23.00
2012,07,14,13,39,23.00
2012,07,14,13,40,23.00
2012,07,14,13,41,23.00
2012,07,14,13,42,23.10
2012,07,14,13,43,23.10
2012,07,14,13,44,23.10
2012,07,14,13,45,23.10
2012,07,14,13,46,23.20
2012,07,14,13,47,23.30
2012,07,14,13,48,23.30
2012,07,14,13,49,23.30
2012,07,14,13,50,23.30
2012,07,14,13,51,23.30
2012,07,14,13,52,23.40
2012,07,14,13,53,23.40
2012,07,14,13,54,23.40
2012,07,14,13,55,23.50
2012,07,14,13,56,23.60
2012,07,14,13,57,23.80
2012,07,14,13,58,23.80
2012,07,14,13,59,23.80
2012,07,14,14,00,23.90
2012,07,14,14,01,23.90
2012,07,14,14,02,23.90
2012,07,14,14,03,23.90
2012,07,14,14,04,23.90
2012,07,14,14,05,24.00
2012,07,14,14,06,24.10
2012,07,14,14,07,24.20
2012,07,14,14,08,24.20
2012,07,14,14,09,24.30
2012,07,14,14,10,24.30
2012,07,14,14,11,24.10
2012,07,14,14,12,23.90
2012,07,14,14,13,23.90
2012,07,14,14,14,23.80
2012,07,14,14,15,23.80
2012,07,14,14,16,23.70
2012,07,14,14,17,23.50
2012,07,14,14,18,23.50
2012,07,14,14,19,23.50
2012,07,14,14,20,23.60
2012,07,14,14,21,23.60
2012,07,14,14,22,23.60
2012,07,14,14,23,23.60
2012,07,14,14,24,23.60
2012,07,14,14,25,23.60
2012,07,14,14,26,23.60
2012,07,14,14,27,23.60
2012,07,14,14,28,23.50
2012,07,14,14,29,23.50
2012,07,14,14,30,23.40
2012,07,14,14,31,23.40
2012,07,14,14,32,23.40
2012,07,14,14,33,23.50
2012,07,14,14,34,23.50
2012,07,14,14,35,23.40
2012,07,14,14,36,23.30
2012,07,14,14,37,23.10
2012,07,14,14,38,23.10
2012,07,14,14,39,23.10
2012,07,14,14,40,23.10
2012,07,14,14,41,23.10
2012,07,14,14,42,23.30
2012,07,14,14,43,23.30
2012,07,14,14,44,23.30
2012,07,14,14,45,23.30
2012,07,14,14,46,23.30
2012,07,14,14,47,23.40
2012,07,14,14,48,23.50
2012,07,14,14,49,23.60
2012,07,14,14,50,23.60
2012,07,14,14,51,23.50
2012,07,14,14,52,23.40
2012,07,14,14,53,23.40
2012,07,14,14,54,23.30
2012,07,14,14,55,23.30
2012,07,14,14,56,23.40
2012,07,14,14,57,23.40
2012,07,14,14,58,23.30
2012,07,14,14,59,23.30
2012,07,14,15,00,23.30
2012,07,14,15,01,23.20
2012,07,14,15,02,23.20
2012,07,14,15,03,23.20
2012,07,14,15,04,23.20
2012,07,14,15,05,23.30
2012,07,14,15,06,23.40
2012,07,14,15,07,23.40
2012,07,14,15,08,23.40
2012,07,14,15,09,23.50
2012,07,14,15,10,23.40
2012,07,14,15,11,23.40
2012,07,14,15,12,23.40
2012,07,14,15,13,23.40
2012,07,14,15,14,23.40
2012,07,14,15,15,23.40
2012,07,14,15,16,23.40
2012,07,14,15,17,23.40
2012,07,14,15,18,23.50
2012,07,14,15,19,23.40
2012,07,14,15,20,23.40
2012,07,14,15,21,23.50
2012,07,14,15,22,23.60
2012,07,14,15,23,23.70
2012,07,14,15,24,23.70
2012,07,14,15,25,23.80
2012,07,14,15,26,23.80
2012,07,14,15,27,23.90
2012,07,14,15,28,24.10
2012,07,14,15,29,24.30
2012,07,14,15,30,24.40
2012,07,14,15,31,24.60
2012,07,14,15,32,24.60
2012,07,14,15,33,24.60
2012,07,14,15,34,24.50
2012,07,14,15,35,24.40
2012,07,14,15,36,24.40
2012,07,14,15,37,24.40
2012,07,14,15,38,24.30
2012,07,14,15,39,24.40
2012,07,14,15,40,24.40
2012,07,14,15,41,24.60
2012,07,14,15,42,24.70
2012,07,14,15,43,24.80
2012,07,14,15,44,24.80
2012,07,14,15,45,24.90
2012,07,14,15,46,25.00
2012,07,14,15,47,25.10
2012,07,14,15,48,25.00
2012,07,14,15,49,24.90
2012,07,14,15,50,24.90
2012,07,14,15,51,24.80
2012,07,14,15,52,24.70
2012,07,14,15,53,24.60
2012,07,14,15,54,24.70
2012,07,14,15,55,24.80
2012,07,14,15,56,24.90
2012,07,14,15,57,24.90
2012,07,14,15,58,24.90
2012,07,14,15,59,24.90
2012,07,14,16,00,24.90
2012,07,14,16,01,25.00
2012,07,14,16,02,25.00
2012,07,14,16,03,24.90
2012,07,14,16,04,24.70
2012,07,14,16,05,24.70
2012,07,14,16,06,24.80
2012,07,14,16,07,24.80
2012,07,14,16,08,24.80
2012,07,14,16,09,24.80
2012,07,14,16,10,24.70
2012,07,14,16,11,24.70
2012,07,14,16,12,24.70
2012,07,14,16,13,24.80
2012,07,14,16,14,24.80
2012,07,14,16,15,24.90
2012,07,14,16,16,24.90
2012,07,14,16,17,24.90
2012,07,14,16,18,24.90
2012,07,14,16,19,24.90
2012,07,14,16,20,24.80
2012,07,14,16,21,24.80
2012,07,14,16,22,24.80
2012,07,14,16,23,24.70
2012,07,14,16,24,24.70
2012,07,14,16,25,24.70
2012,07,14,16,26,24.70
2012,07,14,16,27,24.70
2012,07,14,16,28,24.70
2012,07,14,16,29,24.80
2012,07,14,16,30,24.90
2012,07,14,16,31,25.10
2012,07,14,16,32,25.40
2012,07,14,16,33,25.50
2012,07,14,16,34,25.70
2012,07,14,16,35,25.70
2012,07,14,16,36,25.80
2012,07,14,16,37,25.80
2012,07,14,16,38,25.60
2012,07,14,16,39,25.50
2012,07,14,16,40,25.40
2012,07,14,16,41,25.30
2012,07,14,16,42,25.20
2012,07,14,16,43,25.30
2012,07,14,16,44,25.30
2012,07,14,16,45,25.40
2012,07,14,16,46,25.50
2012,07,14,16,47,25.60
2012,07,14,16,48,25.80
2012,07,14,16,49,25.80
2012,07,14,16,50,25.70
2012,07,14,16,51,25.60
2012,07,14,16,52,25.50
2012,07,14,16,53,25.50
2012,07,14,16,54,25.40
2012,07,14,16,55,25.40
2012,07,14,16,56,25.40
2012,07,14,16,57,25.50
2012,07,14,16,58,25.50
2012,07,14,16,59,25.60
2012,07,14,17,00,25.60
2012,07,14,17,01,25.70
2012,07,14,17,02,25.80
2012,07,14,17,03,25.90
2012,07,14,17,04,25.90
2012,07,14,17,05,25.90
2012,07,14,17,06,25.90
2012,07,14,17,07,25.90
2012,07,14,17,08,25.90
2012,07,14,17,09,25.90
2012,07,14,17,10,26.00
2012,07,14,17,11,26.00
2012,07,14,17,12,26.00
2012,07,14,17,13,25.90
2012,07,14,17,14,25.90
2012,07,14,17,15,25.90
2012,07,14,17,16,26.10
2012,07,14,17,17,26.20
2012,07,14,17,18,26.20
2012,07,14,17,19,26.20
2012,07,14,17,20,26.20
2012,07,14,17,21,26.20
2012,07,14,17,22,26.20
2012,07,14,17,23,26.30